Location: Shannon
(40.5500°S, 175.4167°E)
Time: 20:10:37
(UTC+00:00)

Cosmos 1869 Rocket - Pass Details

Date: 17 November 2025
Orbit: 598 x 625 km, 82.5° (Epoch: 14 December)

Event Time Altitude Azimuth Distance (km) Brightness Sun altitude
Exits shadow 16:03:04 - 325° (NW) 2,083 5.7 -8.4°
Reaches altitude 10° 16:03:18 10° 324° (NW) 2,001 5.6 -8.4°
Maximum altitude 16:07:23 35° 257° (WSW) 1,020 4.3 -7.7°
Drops below altitude 10° 16:11:32 10° 190° (S) 2,035 6.5 -7.1°
Sets 16:13:58 0° 181° (S) 2,951 7.5 -6.7°
